Tracking 33200 objects as of 17-Feb-2026
HD Live streaming from Space Station
objects crossing your sky now

GLOBALSTAR DEB

Track GLOBALSTAR DEB now!
10-day predictions


NORAD ID: 27772
Int'l Code: 1999-031F
Perigee: 947.1 km
Apogee: 1,032.3 km
Inclination: 52.0 °
Period: 104.7 minutes
Semi major axis: 7360 km
RCS: 0.0157 m2 (small)
Launch date: June 10, 1999
Source: Globalstar (GLOB)
Launch site: AIR FORCE EASTERN TEST RANGE (AFETR)

Note: This is SATELLITE DEBRIS
Your satellite tracking list
Your tracking list is empty




NASA's NSSDC Master Catalog

Two Line Element Set (TLE):
1 27772U 99031F   26047.93819654  .00015068  00000-0  15712-1 0  9998
2 27772  52.0245 231.2708 0057927 234.1215 277.9294 13.74752239130407
Source of the keplerian elements: AFSPC